Regional Weather Roundup
Issued by NWS

Home | Current Version | Previous Version | Graphics & Text | Print | Product List | Glossary On
Versions: 1 2 3 4 5 6 7 8 9 10 11 12 13 14 15 16 17 18 19 20 21 22 23 24 25 26 27 28 29 30 31 32 33 34 35 36 37 38 39 40 41 42 43 44 45 46 47 48 49 50
000
ASUS43 KLSX 260459
RWRMO

WEATHER SUMMARY FOR MISSOURI
NATIONAL WEATHER SERVICE SPRINGFIELD MO
1200 AM CDT SUN APR 26 2015

NOTE: "FAIR" INDICATES FEW OR NO CLOUDS BELOW 12,000 FEET WITH NO
       SIGNIFICANT WEATHER AND/OR OBSTRUCTIONS TO VISIBILITY.
       CURRENT SKY AND/OR WEATHER CONDITIONS ARE NOT AVAILABLE FOR
       CHILLICOTHE AND FARMINGTON.

MOZ001>031-035>038-043-044-053-054-260600-
...NORTHERN AND WESTERN MISSOURI...

CITY           SKY/WX    TMP DP  RH WIND       PRES   REMARKS
KANSAS CTY INT DRIZZLE   49  48  97 NE12      29.81R
KANSAS C DTWN  CLOUDY    51  48  89 NE7       29.81R FOG
LEE`S SUMMIT   CLOUDY    50  48  93 N8        29.81R FOG
ST JOSEPH      CLOUDY    50  46  86 NE7       29.85R
CHILLICOTHE      N/A     50  45  83 NE9       29.84R
KIRKSVILLE     CLOUDY    48  44  86 NE9       29.85R

$$
MOZ066>068-077>081-088>096-101>105-260600-
...SOUTHWEST MISSOURI...

CITY           SKY/WX    TMP DP  RH WIND       PRES   REMARKS
SPRINGFIELD    CLOUDY    57  51  80 N12       29.74R
JOPLIN         CLOUDY    58  52  80 N13       29.76R

$$
MOZ032>034-039>042-045>050-055>058-069>072-260600-
...CENTRAL MISSOURI...

CITY           SKY/WX    TMP DP  RH WIND       PRES   REMARKS
COLUMBIA       CLOUDY    49  47  93 N13       29.79R FOG
JEFFERSON CITY CLOUDY    50  48  93 N5        29.78R FOG
ROLLA          CLOUDY    51  50  96 N17       29.73R FOG
SEDALIA        LGT RAIN  50  48  93 NE13      29.81R FOG
WHITEMAN AFB   CLOUDY    50  49  96 NE13      29.78
OSAGE BEACH    CLOUDY    54  48  82 N7        29.76R

$$
MOZ051-052-059>065-260600-
...EAST CENTRAL MISSOURI...

CITY           SKY/WX    TMP DP  RH WIND       PRES   REMARKS
ST LOUIS INTL  CLOUDY    50  45  83 N13       29.76R HAZE
SPIRIT OF STL  CLOUDY    49  46  90 NE14G21   29.76R
ST CHARLES     CLOUDY    48  45  89 NE17G25   29.77R

$$
MOZ072>076-082>087-097>100-106>115-260600-
...SOUTH CENTRAL AND SOUTHEAST MISSOURI...

CITY           SKY/WX    TMP DP  RH WIND       PRES   REMARKS
CAPE GIRARDEAU CLOUDY    61  56  83 N14       29.65R
FARMINGTON     CLOUDY    54  52  94 N12G20    29.74R
POPLAR BLUFF   CLOUDY    67  55  65 NW7       29.63R
WEST PLAINS    CLOUDY    61  55  81 NW5       29.70R

$$


USA.gov is the U.S. government's official web portal to all federal, state and local government web resources and services.